Regional Weather Roundup
Issued by NWS Albany, NY

Home | Current Version | Previous Version | Text Only | Print | Product List | Glossary On
Versions: 1 2 3 4 5 6 7 8 9 10 11 12 13 14 15 16 17 18 19 20 21 22 23 24 25 26 27 28 29 30 31 32 33 34 35 36 37 38 39 40 41 42 43 44 45 46 47 48 49 50
000
ASUS41 KALY 290710
RWRALY

NEW YORK STATE HOURLY WEATHER ROUNDUP
NATIONAL WEATHER SERVICE ALBANY NY
300 AM EDT FRI MAY 29 2015

NOTE: "FAIR" INDICATES FEW OR NO CLOUDS BELOW 12,000 FEET WITH NO
SIGNIFICANT WEATHER AND/OR NO OBSTRUCTIONS TO VISIBILITY.

NYZ032-033-038>043-046>054-057>066-NYZ062>081-290800-
EAST


CITY           SKY/WX    TMP DP  RH WIND       PRES   REMARKS
ALBANY         CLEAR     59  53  80 N3        30.28R
GLENS FALLS    CLEAR     57  53  86 CALM      30.28R
POUGHKEEPSIE   CLEAR     57  54  89 CALM      30.27R
NEWBURGH       CLEAR     57  55  94 CALM      30.29R
MONTGOMERY     CLEAR     53  52  96 CALM      30.27S
WHITE PLAINS   CLEAR     61  53  75 NW6       30.25S
ISLIP          CLEAR     62  54  74 N6        30.23R
NEW YORK CITY  CLEAR     68  53  58 N7        30.25S
CENTRAL PARK   CLEAR     68  52  56 NE8       30.28S
$$

NYZ005>009-017-018-044>046-055-056-290800-
CENTRAL


CITY           SKY/WX    TMP DP  RH WIND       PRES   REMARKS
FULTON         CLEAR     56  53  90 CALM      30.28S
SYRACUSE       CLEAR     56  53  90 SE3       30.27F
ROME           CLEAR     53  51  93 S3        30.30F
ELMIRA         CLEAR     49  48  97 CALM      30.29F FOG
BINGHAMTON     CLEAR     55  52  89 CALM      30.30F
MONTICELLO     CLEAR     50  48  93 CALM      30.31S
$$

NYZ026>034-041>043-290800-
NORTH


CITY           SKY/WX    TMP DP  RH WIND       PRES   REMARKS
WATERTOWN      CLEAR     50  49  96 NE3       30.27S
FORT DRUM      NOT AVBL
MASSENA        FOG       48  46  93 CALM      30.29F VSB 1/2
SARANAC LAKE   FOG       44  44 100 CALM      30.29F VSB 3/4
PLATTSBURGH    PTCLDY    58  54  86 W3        30.29R
$$

NYZ001>004-010>016-019>021-290800-
WEST


CITY           SKY/WX    TMP DP  RH WIND       PRES   REMARKS
NIAGARA FALLS  CLEAR     57  51  80 E3        30.24S
BUFFALO        CLEAR     59  53  80 E7        30.24F
DUNKIRK        CLEAR     53  52  96 CALM      30.23F
JAMESTOWN      CLEAR     59  48  67 E6        30.28S
WELLSVILLE     CLEAR     55  51  86 SE3       30.31F
ROCHESTER      PTCLDY    57  54  89 CALM      30.27F
PENN YAN       CLEAR     57  54  89 SW3       30.29S
$$

             KEY
       WCI = WIND CHILL INDEX
       VSB = VISIBILITY
       HX  = HEAT INDEX
$$



USA.gov is the U.S. government's official web portal to all federal, state and local government web resources and services.